Whidbey Island, WA

10:35 AM PDT on March 29, 2017 (GMT -0700)
Whidbey Island Naval Air Station

Weather History for KNUW - May, 2013

Change the Weather History Date:

Saturday, May 11, 2013

  Actual Average Record
Temperature  
Mean Temperature 56 °F -  
Max Temperature 63 °F 55 °F 66 °F (1997)
Min Temperature 50 °F 42 °F 37 °F (2012)
Degree Days  
Heating Degree Days 10    
Growing Degree Days 6 (Base 50)    
Moisture  
Dew Point 47 °F    
Average Humidity 78    
Maximum Humidity 89    
Minimum Humidity 67    
Precipitation  
Precipitation 0.00 in - - ()
Sea Level Pressure  
Sea Level Pressure 30.12 in    
Wind  
Wind Speed 4 mph (WSW)    
Max Wind Speed 8 mph    
Max Gust Speed -    
Visibility 10 miles    
Events Rain    
Averages and records for this station are not official NWS values.
T = Trace of Precipitation, MM = Missing Value Source: NWS Daily Summary

Daily Weather History Graph

Daily Weather History Graph

Search for Another Location

Airport or City:

Trip Planner

Search our weather history database for the weather conditions in past years. The results will help you decide how hot, cold, wet, or windy it might be!

Date:

Astronomy

May. 11, 2013 Rise Set
Actual Time 5:35 AM PDT 8:39 PM PDT
Civil Twilight 4:58 AM PDT 9:16 PM PDT
Nautical Twilight 4:11 AM PDT 10:04 PM PDT
Astronomical Twilight 3:12 AM PDT 11:03 PM PDT
Moon 6:45 AM PDT (5/11) 10:26 PM PDT (5/11)
Length of Visible Light 16h 17m
Length of Day
15h 03m
Waxing Crescent, 3% of the Moon is Illuminated
May 11
Waxing Crescent
May 17
First Quarter
May 24
Full
May 31
Last Quarter
Jun 8
New

Hourly Weather History & Observations

Time (PDT) Temp. Dew Point Humidity Pressure Visibility Wind Dir Wind Speed Gust Speed Precip Events Conditions
12:56 AM 50.0 °F 45.0 °F 83% 30.20 in 10.0 mi SW 3.5 mph - N/A   Scattered Clouds
1:56 AM 50.0 °F 46.0 °F 86% 30.20 in 10.0 mi South 4.6 mph - N/A   Mostly Cloudy
2:56 AM 51.1 °F 45.0 °F 80% 30.20 in 10.0 mi SSW 3.5 mph - N/A   Mostly Cloudy
3:56 AM 51.1 °F 46.0 °F 83% 30.18 in 10.0 mi SSE 4.6 mph - N/A   Overcast
4:56 AM 50.0 °F 46.0 °F 86% 30.18 in 10.0 mi Calm Calm - N/A   Overcast
5:56 AM 52.0 °F 46.0 °F 80% 30.17 in 10.0 mi SW 3.5 mph - N/A   Overcast
6:56 AM 51.1 °F 45.0 °F 80% 30.18 in 10.0 mi SW 6.9 mph - N/A   Overcast
7:56 AM 53.1 °F 46.0 °F 77% 30.18 in 10.0 mi Calm Calm - N/A   Overcast
8:56 AM 54.0 °F 45.0 °F 72% 30.18 in 10.0 mi WSW 3.5 mph - N/A   Overcast
9:56 AM 55.0 °F 46.0 °F 72% 30.17 in 10.0 mi West 4.6 mph - N/A   Mostly Cloudy
10:56 AM 57.9 °F 48.0 °F 70% 30.14 in 10.0 mi NW 4.6 mph - N/A   Mostly Cloudy
11:56 AM 54.0 °F 46.0 °F 75% 30.14 in 10.0 mi NW 5.8 mph - N/A   Overcast
12:56 PM 57.9 °F 48.9 °F 72% 30.12 in 10.0 mi NW 3.5 mph - N/A   Mostly Cloudy
1:56 PM 57.9 °F 48.9 °F 72% 30.10 in 10.0 mi NNW 3.5 mph - N/A   Overcast
2:56 PM 61.0 °F 50.0 °F 67% 30.09 in 10.0 mi WNW 6.9 mph - N/A   Mostly Cloudy
3:56 PM 55.9 °F 48.9 °F 77% 30.09 in 10.0 mi West 6.9 mph - N/A   Mostly Cloudy
4:56 PM 55.0 °F 48.0 °F 77% 30.09 in 10.0 mi West 8.1 mph - N/A   Mostly Cloudy
5:56 PM 54.0 °F 46.9 °F 77% 30.06 in 10.0 mi WSW 4.6 mph - N/A   Overcast
6:56 PM 54.0 °F 46.9 °F 77% 30.03 in 10.0 mi Calm Calm - N/A   Overcast
7:56 PM 54.0 °F 46.9 °F 77% 30.03 in 10.0 mi Calm Calm - N/A   Overcast
8:56 PM 54.0 °F 46.0 °F 75% 30.05 in 10.0 mi SW 6.9 mph - N/A   Overcast
9:56 PM 53.1 °F 50.0 °F 89% 30.06 in 10.0 mi Calm Calm - N/A   Overcast
10:50 PM 53.6 °F 48.2 °F 82% 30.03 in 10.0 mi SE 3.5 mph - 0.00 in Rain Light Rain
10:56 PM 54.0 °F 48.9 °F 83% 30.04 in 10.0 mi SSE 4.6 mph - 0.00 in Rain Light Rain
11:56 PM 55.0 °F 48.0 °F 77% 30.05 in 10.0 mi SSW 3.5 mph - 0.00 in Rain Light Rain